This demonstration page uses our WeatherBlox Daily Observations layout. Learn more.

Left ArrowRight Arrow

40.92945, -100.16068

Hourly Observations for November 18, 2018

Temp ( °F °C ) Dew Point ( °F °C ) Humidity (%) Winds ( mph kmh ) Pressure ( in mb ) Visibility ( mi km ) Precip ( " mm )
12:15 am 00:15 Mostly Cloudy 17 -8.2 13 -10.7 82 82 N 6 9 30.59 1036 10 16.0934 0 0
12:35 am 00:35 Cloudy 18 -7.7 14 -10.2 82 82 NNW 3 6 30.59 1036 10 16.0934 0 0
12:55 am 00:55 Cloudy 19 -7.3 14 -10.1 81 81 NNW 5 7 30.56 1035 10 16.0934 0 0
1:15 am 01:15 Partly Cloudy 18 -7.9 13 -10.5 82 82 NNW 5 7 30.59 1036 10 16.0934 0 0
1:35 am 01:35 Clear 16 -8.8 12 -11.1 84 84 NNW 6 9 30.59 1036 10 16.0934 0 0
1:55 am 01:55 Clear 16 -9.1 12 -11.1 86 86 WNW 3 6 30.59 1036 10 16.0934 0 0
2:15 am 02:15 Clear 14 -9.9 11 -11.8 86 86 W 3 6 30.56 1035 10 16.0934 0 0
2:35 am 02:35 Clear 13 -10.8 9 -12.6 87 87 W 3 6 30.59 1036 10 16.0934 0 0
2:55 am 02:55 Clear 13 -10.8 10 -12.5 87 87 WNW 6 9 30.59 1036 10 16.0934 0 0
3:15 am 03:15 Clear 11 -11.5 8 -13.1 88 88 W 5 7 30.59 1036 10 16.0934 0 0
3:35 am 03:35 Clear 11 -11.4 8 -13.1 87 87 SW 6 9 30.59 1036 10 16.0934 0 0
3:55 am 03:55 Clear 10 -12.2 7 -14 87 87 SW 5 7 30.59 1036 10 16.0934 0 0
4:15 am 04:15 Clear 11 -11.4 8 -13.1 87 87 WSW 6 9 30.56 1035 10 16.0934 0 0
4:35 am 04:35 Clear 11 -11.6 8 -13.5 86 86 WSW 3 6 30.56 1035 10 16.0934 0 0
4:55 am 04:55 Clear 11 -11.5 8 -13.4 86 86 WSW 5 7 30.56 1035 10 16.0934 0 0
5:15 am 05:15 Clear 11 -11.7 8 -13.6 86 86 W 6 9 30.56 1035 10 16.0934 0 0
5:35 am 05:35 Clear 11 -11.5 8 -13.1 88 88 W 5 7 30.56 1035 10 16.0934 0 0
5:55 am 05:55 Clear 11 -11.8 8 -13.6 87 87 W 5 7 30.56 1035 10 16.0934 0 0
6:15 am 06:15 Clear 11 -11.5 8 -13.3 87 87 W 6 9 30.53 1034 10 16.0934 0 0
6:35 am 06:35 Clear 10 -12.1 7 -13.9 87 87 W 7 11 30.53 1034 10 16.0934 0 0
6:55 am 06:55 Clear 12 -11.3 9 -13 87 87 WNW 6 9 30.53 1034 10 16.0934 0 0
7:15 am 07:15 Clear 9 -12.6 6 -14.5 86 86 NW 5 7 30.53 1034 10 16.0934 0 0
7:35 am 07:35 Sunny 9 -13 5 -15 85 85 Calm 30.53 1034 10 16.0934 0 0
7:55 am 07:55 Sunny 10 -12.2 7 -14 87 87 Calm 30.53 1034 10 16.0934 0 0
8:15 am 08:15 Sunny 12 -11.2 9 -13 87 87 W 3 6 30.53 1034 10 16.0934 0 0
8:35 am 08:35 Sunny 14 -10 11 -11.7 88 88 Calm 30.5 1033 10 16.0934 0 0
8:55 am 08:55 Sunny 17 -8.6 14 -10.2 88 88 Calm 30.5 1033 10 16.0934 0 0
9:15 am 09:15 Sunny 18 -7.7 15 -9.5 87 87 Calm 30.48 1032 10 16.0934 0 0
9:35 am 09:35 Sunny 21 -6 18 -7.6 89 89 W 5 7 30.45 1031 10 16.0934 0 0
9:55 am 09:55 Sunny 24 -4.5 19 -7 83 83 W 7 11 30.42 1030 10 16.0934 0 0
10:15 am 10:15 Sunny 28 -2.5 21 -6.1 77 77 W 7 11 30.39 1029 10 16.0934 0 0
10:35 am 10:35 Sunny 29 -1.5 22 -5.8 73 73 W 9 15 30.39 1029 10 16.0934 0 0
10:55 am 10:55 Sunny 31 -0.5 22 -5.5 69 69 WSW 9 15 30.36 1028 10 16.0934 0 0
11:15 am 11:15 Sunny 32 -0.1 22 -5.3 68 68 WSW 9 15 30.33 1027 10 16.0934 0 0
11:35 am 11:35 Sunny 32 0.2 23 -5 68 68 SW 12 19 30.33 1027 10 16.0934 0 0
11:55 am 11:55 Sunny 33 0.5 23 -5 67 67 SW 10 17 30.3 1026 10 16.0934 0 0
12:15 pm 12:15 Sunny 33 0.8 24 -4.6 68 68 WSW 10 17 30.3 1026 10 16.0934 0 0
12:35 pm 12:35 Sunny 34 1.2 25 -4.1 68 68 SW 12 19 30.27 1025 10 16.0934 0 0
12:55 pm 12:55 Sunny 35 1.6 25 -3.7 68 68 SW 15 24 30.27 1025 10 16.0934 0 0
1:15 pm 13:15 Sunny 36 2.1 25 -3.9 65 65 SW 14 22 30.21 1023 10 16.0934 0 0
1:35 pm 13:35 Sunny 37 2.6 26 -3.5 64 64 WSW 13 20 30.21 1023 10 16.0934 0 0
1:55 pm 13:55 Sunny 38 3.2 26 -3.5 62 62 SW 13 20 30.18 1022 10 16.0934 0 0
2:15 pm 14:15 Sunny 38 3.6 26 -3.4 61 61 SW 14 22 30.18 1022 10 16.0934 0 0
2:35 pm 14:35 Sunny 39 3.7 26 -3.5 60 60 WSW 13 20 30.18 1022 10 16.0934 0 0
2:55 pm 14:55 Sunny 39 3.9 25 -3.7 58 58 SW 17 28 30.15 1021 10 16.0934 0 0
3:15 pm 15:15 Sunny 39 3.9 25 -3.7 58 58 SW 14 22 30.15 1021 10 16.0934 0 0
3:35 pm 15:35 Sunny 39 4 26 -3.5 58 58 SW 13 20 30.15 1021 10 16.0934 0 0
3:55 pm 15:55 Sunny 39 3.7 25 -3.8 58 58 SW 14 22 30.12 1020 10 16.0934 0 0
4:15 pm 16:15 Sunny 38 3.6 25 -3.7 59 59 SW 13 20 30.12 1020 10 16.0934 0 0
4:35 pm 16:35 Sunny 38 3.3 26 -3.5 61 61 SW 9 15 30.12 1020 10 16.0934 0 0
4:55 pm 16:55 Sunny 37 3 26 -3.3 64 64 SW 9 15 30.12 1020 10 16.0934 0 0
5:15 pm 17:15 Sunny 35 1.8 26 -3.5 68 68 SSW 6 9 30.12 1020 10 16.0934 0 0
5:35 pm 17:35 Clear 33 0.6 26 -3.6 74 74 SSW 5 7 30.15 1021 10 16.0934 0 0
5:55 pm 17:55 Clear 32 0 25 -3.7 76 76 SSW 3 6 30.15 1021 10 16.0934 0 0
6:15 pm 18:15 Clear 32 -0.2 24 -4.2 75 75 SSW 3 6 30.15 1021 10 16.0934 0 0
6:35 pm 18:35 Clear 30 -1 25 -4.1 80 80 S 3 6 30.15 1021 10 16.0934 0 0
6:55 pm 18:55 Clear 30 -0.9 24 -4.2 79 79 SSW 5 7 30.15 1021 10 16.0934 0 0
7:15 pm 19:15 Clear 29 -1.9 24 -4.6 82 82 S 6 9 30.15 1021 10 16.0934 0 0
7:35 pm 19:35 Clear 27 -3 23 -5.1 86 86 S 7 11 30.18 1022 10 16.0934 0 0
7:55 pm 19:55 Clear 26 -3.2 22 -5.5 84 84 SSW 6 9 30.18 1022 10 16.0934 0 0
8:15 pm 20:15 Clear 26 -3.2 22 -5.7 83 83 S 8 13 30.18 1022 10 16.0934 0 0
8:35 pm 20:35 Clear 31 -0.6 25 -3.7 80 80 SSW 7 11 30.12 1020 10 16.0934 0 0
8:55 pm 20:55 Clear 32 0.2 26 -3.3 78 78 SW 8 13 30.12 1020 10 16.0934 0 0
9:15 pm 21:15 Clear 32 0.1 26 -3.4 78 78 SW 10 17 30.12 1020 10 16.0934 0 0
9:35 pm 21:35 Clear 32 0 25 -3.7 76 76 SW 8 13 30.12 1020 10 16.0934 0 0
9:55 pm 21:55 Clear 30 -0.9 24 -4.5 77 77 Calm 30.12 1020 10 16.0934 0 0
10:15 pm 22:15 Clear 27 -2.9 22 -5.7 81 81 W 3 6 30.15 1021 10 16.0934 0 0
10:35 pm 22:35 Clear 28 -2.3 22 -5.5 79 79 WNW 6 9 30.15 1021 10 16.0934 0 0
10:55 pm 22:55 Clear 24 -4.6 20 -6.7 85 85 NNW 7 11 30.15 1021 10 16.0934 0 0
11:15 pm 23:15 Clear 23 -4.8 20 -6.7 87 87 NW 6 9 30.15 1021 10 16.0934 0 0
11:35 pm 23:35 Clear 23 -5.1 19 -7.1 86 86 NW 5 7 30.15 1021 10 16.0934 0 0
11:55 pm 23:55 Clear 22 -5.4 19 -7.1 88 88 W 6 9 30.18 1022 10 16.0934 0 0

Powered by AerisWeather